CAPE
52 95 355 361 376 349 254 61 100 170 210 24 650 1619 1841 2253 2510 2594 2440 1992 1224 742 697 809 824 683 435 287 266 160 152 62 39 80 92 157 213 283 231 221 181 256 479 892
32 27 236 130 250 207 222 170 76 98 75 0 0 2111 2348 2521 2655 2479 2000 1441 936 752 729 675 654 568 297 85 85 92 188 110 139 224 360 344 376 442 458 374 380 378 322 404
105 131 214 216 252 422 298 153 166 127 649 374 988 1519 2124 2480 2575 2356 1657 934 589 539 618 598 516 278 158 69 91 142 171 134 81 103 78 38 7 14 20 116 258 408 338 393
428 383 371 274 423 504 379 280 312 224 169 1084 1196 1469 1839 2437 2485 2034 1191 612 502 414 503 341 187 125 76 26 72 118 57 5 5 7 7 9 11 20 38 54 61 64 72 309
421 518 463 424 577 368 236 125 40 270 244 617 732 1084 1694 2146 2195 1718 921 477 429 349 357 235 153 107 32 6 0 1 2 6 10 14 21 24 20 20 28 29 94 50 119 322
723 454 228 438 125 82 270 449 324 247 220 724 1057 912 1627 2226 1791 1178 636 425 247 305 207 171 71 2 0 0 0 0 7 8 15 15 20 20 23 26 38 42 28 21 28 113
628 189 424 392 91 19 368 854 717 458 557 1079 1429 1750 2105 2018 1363 772 457 346 265 148 55 31 0 0 0 0 3 6 7 11 8 9 11 15 21 32 17 22 35 29 37 33
77 426 357 219 288 187 742 949 843 902 1208 1446 1695 1445 1565 1164 681 555 523 168 112 55 7 0 0 0 0 4 4 3 9 13 15 13 14 12 21 19 18 20 29 41 27 20
29 333 699 659 712 893 521 646 922 1130 1327 1911 1473 1230 1061 971 758 562 377 117 0 0 0 0 1 1 1 8 6 7 9 11 12 9 7 12 15 27 26 39 14 12 19 11
224 741 705 621 563 389 407 485 850 989 1499 1613 1407 1192 1000 860 623 299 79 11 0 0 0 2 3 4 5 9 10 10 8 2 8 12 6 9 8 26 44 35 51 49 52 43
457 507 376 564 565 526 465 435 757 992 1206 1266 1179 996 779 519 222 60 0 0 0 0 1 7 4 8 8 11 4 3 6 8 5 5 6 5 3 15 9 19 24 9 19 48
1096 762 609 573 434 473 463 575 735 893 1042 1076 982 641 337 126 35 2 0 0 0 2 4 3 8 8 7 8 3 8 10 8 6 9 6 6 7 10 6 0 0 0 0 0
625 355 220 176 188 380 555 703 758 706 729 485 216 123 70 6 0 0 0 0 1 0 1 2 3 7 7 12 9 10 6 7 6 3 2 6 5 7 8 5 0 0 0 0
309 289 342 146 149 271 568 702 511 579 325 164 68 11 0 0 0 0 0 0 0 0 0 0 0 0 0 6 7 13 3 0 0 6 6 7 5 6 8 8 9 11 1 0
249 265 300 186 198 434 611 755 606 363 153 18 0 0 0 0 0 0 0 0 0 0 0 0 0 0 0 0 2 0 0 0 0 0 2 0 0 1 0 2 10 9 8 2
0 153 325 357 402 452 632 659 514 272 83 4 0 0 0 0 0 0 0 0 1 2 0 0 0 0 0 0 0 0 0 0 0 0 0 0 0 0 0 0 0 3 7 7
16 107 451 698 778 618 601 603 530 278 151 29 1 0 0 0 0 0 0 0 1 3 4 0 0 0 0 0 0 0 0 0 0 0 0 0 0 0 0 0 0 0 0 1
33 73 114 134 624 189 481 481 355 359 190 75 18 0 0 0 3 4 3 2 5 14 25 13 0 0 0 0 0 0 0 0 0 0 0 0 0 0 0 0 0 1 1 0
26 9 6 43 147 422 2 9 68 111 161 167 14 37 0 0 0 6 0 2 15 31 71 37 0 0 5 0 0 0 0 0 0 0 0 0 0 0 0 0 0 0 1 1
7 0 1 0 29 32 5 2 16 28 23 101 245 99 53 23 33 58 40 27 46 69 61 48 25 50 22 8 0 0 0 0 0 1 0 0 0 0 0 0 0 0 0 1
1 1 18 38 11 18 31 18 11 9 11 24 94 62 155 123 56 168 216 46 85 51 54 23 35 71 53 2 0 3 1 3 5 9 8 7 3 0 0 0 0 0 0 0
39 19 0 0 7 55 41 44 31 16 63 46 92 131 85 65 287 146 101 95 211 2 85 83 78 87 50 0 1 10 6 13 18 20 18 18 15 10 3 1 0 0 0 0
301 181 10 0 11 2 12 43 66 62 71 93 116 151 261 249 368 404 625 197 117 166 67 54 61 17 0 2 8 31 15 22 34 42 41 38 26 27 24 9 1 1 0 1
434 322 291 150 0 34 66 76 76 193 230 329 351 521 727 186 250 224 217 4 1 0 0 0 0 0 0 60 36 54 38 44 69 71 44 21 40 39 35 26 11 8 3 4
338 505 445 310 329 921 512 606 655 637 529 771 621 570 572 430 50 4 6 0 0 0 0 0 0 0 49 96 70 46 60 70 82 75 54 64 55 40 40 33 23 10 6 14
456 423 608 555 372 362 509 426 910 834 738 798 749 616 404 112 29 0 0 0 0 0 0 17 50 57 83 73 82 54 78 70 58 68 77 68 96 75 36 34 26 23 20 15
489 86 382 581 434 376 175 70 137 113 181 212 162 112 65 9 0 0 0 1 3 0 2 81 66 43 35 40 52 58 78 59 42 77 56 55 63 45 18 26 25 23 28 34
CIN
-20 -14 -4 -3 -3 0 0 -20 -3 -16 -33 -24 -53 -8 -5 -3 -3 -1 -2 -8 -54 -96 -134 -149 -146 -154 -168 -183 -194 -209 -191 -223 -229 -201 -187 -154 -132 -105 -131 -143 -159 -122 -49 -6
-35 -10 -1 0 0 -1 0 0 -30 -307 -515 0 -3 -1 -16 -1 -2 -4 -14 -41 -87 -139 -145 -134 -143 -138 -180 -223 -241 -246 -204 -223 -203 -163 -111 -113 -100 -78 -75 -90 -90 -87 -91 -64
-7 -2 -1 0 -2 -1 -1 -2 0 -39 -2 -247 -45 -21 -9 0 0 -1 -27 -115 -138 -139 -130 -135 -141 -173 -189 -234 -235 -228 -228 -221 -226 -196 -207 -200 -65 -292 -293 -217 -146 -92 -104 -83
0 -1 0 -2 -5 -9 -13 -35 -2 -3 -1 -6 -14 -16 -24 0 0 -3 -26 -123 -147 -135 -127 -164 -179 -195 -230 -228 -215 -202 -237 -144 0 -20 0 0 0 -113 -256 -245 -245 -256 -244 -119
0 0 -4 -1 -21 -8 -10 -50 -38 -1 -3 -4 -33 -11 -20 -6 0 -15 -48 -107 -138 -112 -138 -182 -205 -231 -257 -203 0 0 0 0 0 0 0 0 0 0 -190 0 -223 -264 -205 -125
-4 -1 -33 -34 -114 -71 -14 -4 -4 -2 -13 -8 -31 -2 0 0 -2 -32 -88 -137 -164 -162 -200 -180 -223 -282 0 0 0 0 0 0 0 0 0 0 0 0 0 -141 0 0 -89 -243
-1 -84 -1 -22 -125 -109 0 -8 -24 -16 -15 -18 -10 -29 -12 0 -17 -79 -149 -182 -175 -219 -210 -261 0 0 0 0 0 0 0 0 0 0 0 0 0 0 0 0 0 0 0 0
-16 -6 -108 -11 -9 -5 -21 -16 -25 -31 -15 -21 -57 -91 -54 -92 -123 -130 -136 -204 -214 -219 -249 0 0 0 0 0 0 0 0 0 0 0 0 0 0 0 0 0 0 0 0 0
-455 -161 -100 -29 -20 -51 -55 -44 -37 -18 -16 -37 -57 -82 -117 -121 -126 -140 -156 -192 -17 0 0 0 0 0 0 0 0 0 0 0 0 0 0 0 0 0 0 0 -1 -1 0 0
-11 0 -2 -18 -28 -39 -60 -43 -68 -55 -23 -46 -50 -67 -87 -86 -102 -140 -188 -223 0 0 0 0 0 0 0 0 0 0 0 -1 0 0 0 0 0 0 0 0 0 0 0 0
-1 -11 -11 -12 -31 -53 -50 -62 -55 -65 -65 -49 -67 -69 -75 -99 -137 -175 0 0 0 0 0 0 0 0 0 0 0 0 0 0 0 0 0 -1 -1 0 0 0 -3 0 -1 0
-1 -36 -49 -13 -43 -59 -47 -40 -43 -42 -31 -20 -26 -69 -122 -180 -213 -72 0 0 0 0 0 0 0 0 0 0 0 0 0 0 0 0 0 0 0 0 -2 0 0 0 0 0
-52 -77 -70 -71 -44 -49 -43 -28 -38 -38 -49 -102 -137 -150 -184 -237 0 0 0 0 0 0 0 0 0 0 0 0 0 0 0 0 0 0 0 0 0 0 0 -1 -2 0 0 0
-38 -29 -40 -35 -13 -10 -28 -22 -57 -33 -87 -129 -156 -144 0 0 0 0 0 0 0 0 0 0 0 0 0 0 0 0 0 0 0 0 0 0 0 0 0 0 0 0 0 0
-50 -46 -18 -34 -20 0 0 0 -14 -32 -73 -134 0 0 0 0 0 0 0 0 0 0 0 0 0 0 0 0 0 0 0 0 0 0 0 0 0 0 0 0 0 0 0 -1
-2 -24 0 -1 0 0 0 -1 0 -2 -31 -73 0 0 0 0 0 0 0 0 0 0 0 0 0 0 0 0 0 0 0 0 0 0 0 0 0 0 0 0 0 0 0 0
-4 -17 -2 0 -9 -38 -1 0 0 -1 -4 -28 -2 0 0 0 0 0 0 0 0 0 0 0 0 0 0 0 0 0 0 0 0 0 0 0 0 0 0 0 0 0 0 -1
0 -44 -34 -5 0 -101 -56 -24 -41 -19 0 -8 -41 0 0 0 0 0 0 0 0 0 0 0 0 0 0 0 0 0 0 0 0 0 0 0 0 0 0 0 0 0 0 0
0 0 0 -12 -14 0 -55 -180 -45 -33 -13 -6 -20 -12 0 0 0 -8 0 0 0 0 0 0 0 0 0 0 0 0 0 0 0 0 0 0 0 0 0 0 0 0 0 0
0 0 -5 0 -11 -5 -6 -1 -60 -43 -60 -39 -5 -23 -50 -16 -11 -4 -2 0 0 -14 0 -3 -4 0 0 0 0 0 0 0 0 0 0 0 0 0 0 0 0 0 0 0
0 0 0 0 0 -2 -3 -28 -46 -40 -30 -52 -12 -24 -8 -18 0 0 0 0 0 -2 -1 -27 -4 0 -1 -1 0 0 0 0 0 0 0 0 0 0 0 0 0 0 0 0
0 0 0 0 -20 0 0 0 -7 -15 0 -15 0 0 -8 -16 -2 0 0 0 -8 -31 -3 -1 -6 -20 -7 0 0 0 0 0 0 -1 0 0 0 0 0 0 0 0 0 0
0 0 -1 0 -13 -20 -30 -13 -9 -6 -1 -4 -12 -9 -11 -16 -9 -3 0 -1 -1 -9 -2 -2 -9 -79 0 -2 -5 0 0 0 0 0 0 0 0 0 0 0 0 0 0 0
0 0 0 -1 0 -11 -9 -11 -7 -5 -12 -37 -38 -3 0 0 0 0 -20 -36 -1 0 0 0 0 0 0 0 0 0 0 0 -5 -5 -1 -5 0 0 0 0 0 0 0 0
0 0 0 0 0 0 0 -1 -1 -1 -2 0 0 -1 0 -11 -135 -3 -20 0 0 0 0 0 0 0 -7 0 0 0 0 0 -1 -1 0 -13 -10 0 0 0 0 0 0 0
0 0 0 0 0 -1 -11 -1 -8 -1 -4 0 0 0 -2 -14 -15 0 0 0 0 0 0 -2 -1 -18 0 -1 -1 -4 0 -1 -3 -11 -18 0 -2 -1 0 0 -1 0 0 0
-1 -10 0 0 0 -1 -27 -23 -1 -1 -17 -8 -4 -10 -2 -5 0 0 0 0 0 0 -1 -2 -8 -7 0 0 0 -1 0 -1 -4 -4 0 0 -2 -9 -3 -1 -1 -1 0 0
Wind_Speed
19 4 10 4 19 20 21 22 19 3 12 8 11 20 19 18 18 18 16 17 15 14 13 11 10 7 4 4 5 5 5 6 6 6 6 7 6 6 6 7 8 8 9 8
21 17 11 10 15 17 15 17 11 16 9 16 29 12 14 17 18 19 18 16 16 14 14 12 10 7 5 3 4 4 5 6 6 7 7 8 8 8 8 8 9 9 9 10
15 18 14 12 16 13 12 15 13 13 11 30 18 13 14 16 17 17 18 17 16 15 12 10 8 5 3 2 4 5 6 7 8 8 9 9 9 9 10 10 10 10 11 11
13 13 13 9 3 8 7 14 16 12 12 13 5 11 11 16 17 16 15 15 13 11 11 9 7 6 3 2 3 4 6 7 7 8 9 9 10 10 9 9 9 9 11 11
13 12 14 10 9 9 12 11 17 8 8 7 1 9 10 12 14 16 14 14 9 8 9 6 5 3 2 4 5 6 7 6 7 8 9 10 10 11 10 10 10 10 10 11
8 15 18 7 16 11 4 8 11 6 5 4 4 8 9 12 13 15 14 13 7 8 8 8 4 2 4 5 5 5 7 8 9 10 11 11 11 11 10 11 12 11 12 12
12 13 3 21 15 7 14 3 7 5 2 4 5 8 15 15 14 14 13 13 10 8 5 3 2 2 3 4 4 7 8 8 7 7 8 10 10 8 9 11 10 11 10 11
11 14 7 3 11 8 5 3 6 2 3 7 11 12 15 15 15 14 13 9 8 6 5 5 3 3 4 4 6 6 7 7 9 9 8 7 9 9 9 11 11 9 10 11
9 3 19 10 9 8 6 6 4 1 6 14 13 15 16 16 14 13 13 9 6 6 6 4 4 5 5 5 6 7 8 8 9 9 8 8 9 9 8 7 7 7 6 8
9 9 6 6 5 4 3 5 2 2 8 13 14 16 16 15 14 11 10 9 7 5 4 4 4 1 3 5 6 6 7 7 7 8 9 9 8 8 8 8 7 7 8 7
7 6 5 8 10 9 4 4 4 8 11 12 15 15 14 12 11 10 8 6 5 5 4 5 2 4 5 5 5 6 7 7 7 6 7 7 7 7 7 9 7 9 9 7
6 8 10 11 11 7 6 4 7 10 11 11 12 12 12 11 8 8 7 7 5 5 5 4 4 4 3 4 5 5 6 6 6 7 7 7 8 8 4 4 8 10 10 6
7 11 12 12 11 6 5 6 9 10 12 12 10 11 11 10 9 8 8 7 7 6 6 5 4 5 4 2 3 4 5 6 5 5 6 6 7 8 9 8 8 11 9 7
10 10 12 13 9 3 6 8 10 12 12 12 12 11 12 11 10 9 9 8 8 7 6 5 4 5 4 4 5 4 5 9 6 4 5 6 6 7 7 8 9 8 8 9
13 13 15 14 16 7 9 11 13 13 13 12 12 12 12 12 10 10 9 8 8 7 6 5 5 5 5 5 5 5 4 5 7 4 3 3 4 5 5 7 8 9 9 9
14 15 12 11 10 13 12 15 15 14 13 13 12 12 12 11 11 10 9 9 8 7 6 5 5 5 5 5 6 4 2 6 6 6 6 6 6 7 6 6 6 8 8 10
12 10 12 14 15 19 14 14 13 13 13 12 12 12 12 12 11 9 8 8 7 6 6 5 5 4 4 6 6 5 5 4 1 5 6 6 6 7 7 8 7 7 7 7
7 9 10 11 12 12 6 6 4 5 12 12 13 12 12 11 9 8 7 7 6 5 5 5 3 4 4 7 7 3 5 5 6 6 6 7 7 8 7 8 8 8 8 7
4 5 8 9 9 9 7 7 6 6 4 7 10 10 9 8 9 7 7 7 6 6 4 5 9 6 1 5 8 7 4 6 6 6 6 8 6 7 7 8 8 7 9 8
2 3 4 6 6 2 3 5 3 4 2 5 4 5 7 8 7 8 8 9 7 5 7 8 6 6 1 5 7 8 4 5 6 6 6 7 7 8 7 6 8 8 8 8
4 5 1 2 3 2 4 4 2 4 4 6 3 1 6 4 8 8 7 8 9 6 5 6 6 5 7 3 5 5 4 3 5 5 6 7 8 8 8 7 8 7 7 7
2 3 4 2 3 3 3 2 3 5 8 6 8 10 11 10 14 12 11 7 5 2 4 4 7 9 3 3 7 6 5 3 5 4 6 6 8 8 8 8 7 6 7 7
5 5 4 3 2 5 1 3 3 5 10 12 11 10 10 8 7 10 8 9 7 5 6 8 5 13 11 5 7 7 5 6 6 5 6 5 7 6 8 8 8 7 7 7
5 5 5 8 7 6 7 9 12 13 12 11 12 13 9 10 10 7 8 7 4 5 5 8 1 8 10 6 8 9 4 6 4 4 6 4 8 5 7 7 8 8 7 7
5 5 5 4 6 6 9 10 8 6 8 10 13 8 11 2 5 2 4 5 10 7 8 7 11 11 8 7 9 8 6 7 7 7 7 4 4 6 7 6 7 7 8 8
6 3 3 4 4 5 6 7 5 3 3 3 4 5 3 6 5 4 3 2 4 9 10 5 9 9 9 11 9 6 8 8 6 5 6 8 3 6 6 6 7 7 8 7
2 3 3 3 6 4 3 4 4 2 4 3 6 5 7 7 6 5 6 6 6 6 8 7 6 8 7 4 4 8 8 7 6 6 9 9 5 4 6 4 6 6 6 6
Wind_Direction
263 213 250 240 257 232 236 253 255 152 330 25 261 164 166 162 162 163 169 168 151 154 142 141 136 135 130 103 83 46 16 3 8 356 348 338 337 332 322 325 322 313 302 294
252 255 219 260 269 265 244 248 265 56 333 85 259 141 162 170 173 169 169 170 157 156 155 153 151 164 150 122 54 28 347 341 347 341 340 330 327 323 315 304 301 295 290 288
243 232 247 241 258 256 254 237 266 180 154 182 191 152 173 173 176 171 170 174 166 164 161 148 153 146 154 48 4 347 336 329 328 327 327 325 324 317 309 305 302 294 289 286
250 233 226 249 271 330 344 344 334 328 357 95 108 151 182 175 171 172 176 162 166 170 148 154 157 123 103 290 301 298 304 307 321 319 318 317 314 311 308 303 298 293 289 288
254 198 249 156 194 212 235 224 262 336 343 74 201 157 171 171 171 162 167 157 161 148 144 117 109 106 282 294 301 298 301 326 324 319 313 313 310 313 313 304 299 296 289 283
267 238 253 70 6 11 344 238 256 283 297 106 199 201 149 153 154 154 137 136 140 111 150 153 146 242 316 313 330 311 353 339 346 342 322 315 315 308 315 309 298 302 309 310
254 263 255 159 176 212 265 59 40 27 39 139 192 347 120 141 131 130 141 135 163 166 149 124 139 1 320 324 321 6 334 345 305 301 327 298 298 326 319 305 299 295 300 299
255 267 258 155 139 221 21 24 24 71 130 151 115 125 121 126 132 132 139 137 174 170 159 132 68 360 326 322 4 334 324 321 331 309 302 316 306 300 305 295 288 291 305 303
172 242 301 18 23 76 41 352 10 47 147 124 140 139 143 141 139 150 159 157 170 156 157 142 88 16 328 16 336 333 330 328 318 319 312 310 318 300 292 297 314 304 300 315
318 101 65 2 357 338 336 298 149 220 134 156 153 147 150 152 149 156 149 160 145 152 136 122 69 24 6 2 352 331 324 330 329 329 337 321 323 323 334 321 322 339 324 304
298 343 349 76 23 356 311 265 177 148 156 155 148 149 153 147 147 141 137 128 121 132 124 104 101 64 26 2 338 335 337 330 332 323 327 324 324 318 314 302 334 322 306 301
35 27 346 358 348 2 308 225 176 163 150 144 153 139 139 139 132 134 127 124 121 108 103 109 101 94 59 354 349 343 338 348 352 336 339 334 328 329 308 327 306 297 295 266
335 321 319 309 315 333 275 200 167 158 146 138 137 148 133 131 131 113 127 124 118 104 97 85 71 47 19 359 2 5 347 340 340 330 338 337 339 340 337 333 280 256 269 308
300 343 312 297 288 252 238 180 153 144 152 159 156 144 140 127 149 139 132 124 121 111 103 87 60 43 354 6 335 349 331 196 309 356 351 343 343 341 338 351 343 348 40 14
352 321 300 295 286 257 222 163 176 164 160 156 151 142 140 152 142 137 135 135 125 113 104 90 76 43 3 346 335 301 316 10 327 309 267 282 304 332 353 347 353 358 346 355
320 307 297 298 280 257 209 178 193 173 163 160 147 145 148 142 143 145 147 153 163 115 107 89 72 47 10 350 315 332 38 122 285 321 340 348 347 331 352 5 8 2 353 2
339 329 328 328 351 322 206 188 194 175 169 161 151 143 145 147 145 150 150 139 131 135 131 98 66 56 13 1 325 9 348 5 280 334 349 353 354 338 348 355 359 8 10 33
331 334 333 333 333 343 320 168 166 167 162 156 149 152 155 156 152 155 156 147 152 170 169 129 70 360 38 7 338 0 358 347 3 357 348 345 349 329 354 1 0 354 359 25
25 12 354 355 351 5 42 21 85 95 120 140 158 160 159 152 159 154 173 167 189 210 173 168 148 235 28 54 312 304 44 354 10 7 5 319 350 338 360 5 353 352 355 357
262 292 321 348 352 340 73 35 348 70 53 85 124 156 180 179 176 181 183 207 206 177 186 139 197 261 186 143 272 307 38 4 357 2 15 338 7 335 354 9 355 357 357 352
42 14 290 336 322 317 68 87 44 355 346 26 356 272 250 266 223 193 198 219 195 212 220 156 242 266 216 176 267 293 312 38 334 358 351 353 354 355 349 354 357 353 351 351
328 70 79 40 28 157 69 18 40 59 331 317 283 250 235 228 227 211 224 242 115 38 262 243 232 206 255 197 276 309 306 6 317 345 340 358 341 353 351 342 348 346 347 355
287 257 160 138 169 124 120 308 290 241 245 255 252 259 253 218 221 214 196 218 250 193 249 243 228 159 159 212 259 283 303 293 297 327 324 340 318 346 351 344 332 336 340 347
292 272 241 213 210 220 217 230 239 231 229 234 238 242 217 216 225 217 149 127 122 174 268 294 105 170 181 218 241 264 286 304 326 287 303 303 300 343 341 327 333 335 337 314
296 287 271 259 228 238 239 236 247 249 228 228 244 199 216 45 101 257 96 136 172 221 274 233 174 169 214 227 240 256 265 257 251 264 298 278 289 326 308 322 337 339 316 313
291 271 246 251 263 259 230 215 168 181 193 152 157 192 145 124 149 152 146 239 251 245 257 199 174 189 219 223 228 248 259 279 269 261 229 277 275 259 299 336 339 335 330 327
268 346 330 247 238 229 15 66 67 122 143 105 128 150 154 167 155 224 189 248 257 310 289 126 183 198 239 264 246 235 231 252 251 261 284 308 315 293 284 331 328 332 326 331